Location: Rometta
(44.2000°N, 10.0500°E)
Time: 22:21:49
(UTC+00:00)

ERS-2 - Visible Passes

Search period start: 05 May 2021 00:00
Search period end: 15 May 2021 00:00
Orbit: 491 x 497 km, 98.6° (Epoch: 05 May)

Date Brightness Start Highest point End Pass type
(mag) Time Alt. Az. Time Alt. Az. Time Alt. Az.
05 May 3.7 19:22:16 10° N 19:25:42 39° WNW 19:29:05 10° SW visible
06 May 2.3 19:00:41 10° N 19:04:19 76° WNW 19:07:55 10° SSW visible
07 May 5.6 20:14:35 10° NW 20:15:56 12° WNW 20:17:16 10° W visible
08 May 5.1 19:52:01 10° NNW 19:54:42 20° WNW 19:57:23 10° WSW visible
09 May 4.0 19:30:06 10° N 19:33:25 34° WNW 19:36:42 10° SW visible
10 May 2.6 19:08:26 10° N 19:12:03 65° WNW 19:15:38 10° SSW visible
11 May 5.8 20:23:04 10° NW 20:23:36 10° WNW 20:24:08 10° WNW visible
12 May 5.2 19:59:55 10° NNW 20:02:23 17° WNW 20:04:50 10° WSW visible
13 May 4.3 19:37:54 10° N 19:41:06 30° WNW 19:44:17 10° SW visible
14 May 3.0 19:16:11 10° N 19:19:45 55° WNW 19:23:18 10° SSW visible
